This is the latest recevied weather packets stored in our database for station/object K5EAA-13. If no packets are shown the sender has not sent any weather packets the latest 10 day(s).
| Time | Temp. | Humidity | Pressure | Rain* | Wind** | Luminosity | Snow |
|---|---|---|---|---|---|---|---|
| 1787848636 | 32.22° C | 54% | 1016.2 hPa | 0 mm | - | 658 W/m² | - |
| 1787848332 | 32.22° C | 56% | 1016.2 hPa | 0 mm | - | 654 W/m² | - |
| 1787848031 | 31.67° C | 56% | 1016.1 hPa | 0 mm | - | 641 W/m² | - |
| 1787847731 | 31.67° C | 57% | 1016.3 hPa | 0 mm | - | 631 W/m² | - |
| 1787847426 | 31.67° C | 57% | 1016.2 hPa | 0 mm | - | 621 W/m² | - |
| 1787847122 | 31.11° C | 59% | 1016.4 hPa | 0 mm | - | 613 W/m² | - |
| 1787846818 | 31.11° C | 60% | 1016.3 hPa | 0 mm | - | 600 W/m² | - |
| 1787846513 | 30.56° C | 61% | 1016.2 hPa | 0 mm | - | 589 W/m² | - |
| 1787846208 | 30.56° C | 61% | 1016.3 hPa | 0 mm | - | 575 W/m² | - |
| 1787845904 | 31.11° C | 60% | 1016.4 hPa | 0 mm | - | 563 W/m² | - |
| 1787845604 | 30.56° C | 61% | 1016.2 hPa | 0 mm | - | 551 W/m² | - |
| 1787845300 | 30° C | 63% | 1016.2 hPa | 0 mm | - | 539 W/m² | - |
| 1787844996 | 30° C | 64% | 1016.3 hPa | 0 mm | - | 523 W/m² | - |
| 1787844691 | 29.44° C | 66% | 1016.2 hPa | 0 mm | - | 509 W/m² | - |
| 1787844390 | 28.89° C | 67% | 1016.3 hPa | 0 mm | - | 494 W/m² | - |
| 1787844090 | 28.89° C | 67% | 1016 hPa | 0 mm | - | 481 W/m² | - |
| 1787843785 | 29.44° C | 67% | 1016 hPa | 0 mm | - | 463 W/m² | - |
| 1787843480 | 28.89° C | 67% | 1016.1 hPa | 0 mm | - | 444 W/m² | - |
| 1787843178 | 28.89° C | 67% | 1016.2 hPa | 0 mm | - | 428 W/m² | - |
| 1787842878 | 29.44° C | 67% | 1016.2 hPa | 0 mm | - | 410 W/m² | - |
| 1787842578 | 28.89° C | 68% | 1016 hPa | 0 mm | - | 389 W/m² | - |
| 1787842278 | 28.89° C | 68% | 1016.2 hPa | 0 mm | - | 371 W/m² | - |
| 1787841977 | 28.89° C | 69% | 1016.2 hPa | 0 mm | - | 353 W/m² | - |
| 1787841673 | 28.33° C | 70% | 1016.1 hPa | 0 mm | - | 303 W/m² | - |
| 1787841372 | 28.33° C | 70% | 1016 hPa | 0 mm | - | 325 W/m² | - |
* Rain latest hour (hover to see other rain measurements)
** Current wind speed in m/s (hover to see current wind gust speed)